sat.trackr.live / text

‹ back to catalog

STARLINK-36094

NORAD 66851 · 2025-281D

PAYLOAD ACTIVE UNKNOWN

§ Identity

Operator
Country
US
Launch date
2025-12-02
Launch site
AFETR
Launch vehicle
Mass (kg)
RCS (m²)

Purposes: comms

External: N2YO · Heavens-Above · Gunter

§ Orbital elements

Epoch: 2026-09-20T10:57:49.765536Z

Period
94.27 min
Inclination
43.0036°
Eccentricity
0.0001141
Mean motion
15.27591804 rev/d
Perigee alt
482.2 km
Apogee alt
483.8 km
Semi-major
6,861.2 km
B*
2.3237e-4
RAAN
323.4480°
Arg perigee
272.8608°
Mean anomaly
87.2113°
Rev number
4,597

§ Raw data

STARLINK-360941 66851U 25281D   26263.45682599  .00006140  00000+0  23237-3 0  99912 66851  43.0036 323.4480 0001141 272.8608  87.2113 15.27591804 45977

JSON: /api/v1/satellites/66851 · /tle

For live sub-satellite position, see the globe view (requires WebGL).

§ Visibility from observer

Set your observer location to see the next 7 days of passes ≥ 10°. The values pass through the URL so the page stays shareable.

No JS? Fill the form by hand. The geolocation button needs JavaScript.